Torna al catalogo

USA 447

AttivoMilitareVLEO
NORAD 62346·PAYLOAD·🇺🇸 United States

Lanciato Dec 17, 2024 da Vandenberg Space Force Base

Loading…

Prossimi Passaggi (prossime 24 ore)

TLE

ObsoletoSource: Mike McCants

Epoca: Aug 7, 2026, 22:26 UTC

1 62346U 24243G   26219.93478232 0.00000000  00000-0  00000-0 0    07
2 62346  70.0220 152.2404 0004000  97.9437 262.0563 14.96713206    08

Traccia USA 447 in tempo reale con AllMySat

Download on the App Store